STARLINK-2533, 48294

Orbit data source: Space-Track

STARLINK-2533, 48294 is a payload satellite owned by SpaceX/Seattle (US) in LEO that was launched on Thu, 29 Apr 2021 UTC via an FALCON 9 launch vehicle from the Air Force Eastern Test Range (AFETR). Payload-class satellites include a variety of spacecraft equipped with specific instruments for various scientific and technological missions. These include communications satellites like Starlink; space stations such as the ISS; scientific satellites like the Hubble; Earth observation satellites from companies like Planet Labs, Umbra, and HawkEye 360; GPS; miniature CubeSats for education and research; and military/defense satellites.

Loading next visibility...
Identifier
48294, 2021-036U
Orbit
LEO
Last TLE update
1 day ago
Origin
Manufacturer
SpaceX/Seattle
Mission
Operational Commercial Communications
Bus & Motor
STARLINK, Unknown motor
Mass
260 kg wet, ~248 kg dry
Launch date (UTC)
2021-04-29 (4 years ago)
Launch vehicle
FALCON 9
Launch site
Air Force Eastern Test Range (AFETR)
Object type
Payload
Rocket body
Debris
Shape & HBR
Box + 1 Pan, 8.86 m
Radar Cross Section
13.562 m², Large (>1 m²)

Expand to show TLE details & history

TLE from 1 day ago
0 STARLINK-2533
1 48294U 21036U   25174.67233990  .00000740  00000-0  68538-4 0  9992
2 48294  53.0536 164.3888 0001183  77.6443 282.4678 15.06398445229851
Epoch: 2025-06-23T16:08Z
TLE epoch observation values (Epoch: 2025-06-23T16:08:10.167Z)
Latitude
-0.00004°
Longitude
10.26715°
Altitude
547.919 km
Speed
7.589 km/s
True Right ascension
10h 57m 33s
True Declination
0° 00' 00"
Sunlit
Object was in daylight at epoch
Visualization orbit readout
Latitude
-34.51032°
Longitude
-143.43932°
Altitude
558.79 km
Speed
7.582 km/s
Apparent Right ascension
21h 03m 29s
Apparent Declination
-59° 12' 08"
Sunlit
Object is in daylight
Visualization observer readout
Local Sidereal Time
04:12:49
Azimuth
221.066° SW
Elevation
-41.927°
Doppler factor
1
Orbital elements
Apogee altitude
548.306 km
Perigee altitude
546.668 km
Semi-major axis
6,925.624 km
Eccentricity
0.00012
Inclination
53.0536°
RAAN
164.3888°
Arg. of periapsis
77.6443°
True anomaly
Unknown
Mean anomaly
282.4678°
Eccentric anomaly
Unknown
Mean motion
3.76578 °/min
Orbital period
95.6 mins
BSTAR
0.000068538
Loading maneuver chart data...
Loading SW <> Apogee altitude chart data...
Loading historical data...
Loading historical data...
Loading historical data...
Loading historical data...
Loading historical data...
Loading historical data...
Loading historical data...

STARLINK-2533 Visibility forecast

Observer location: undefined°, undefined°

Span
Click to sort rows by Start time (UTC) header in descending order
Start Az.
Max El. time (UTC)
Max El. Az.
Max El.
End time (UTC)
End Az.
7 mins2025-06-25 01:44:53.818Z224.79° SW2025-06-25 01:47:53.818Z205.905° SW42.597°2025-06-25 01:51:53.818Z52.475° ENE
4 mins2025-06-25 03:26:53.818Z307.934° NW2025-06-25 03:27:53.818Z327.99° NNW20.578°2025-06-25 03:30:53.818Z23.261° NE
5 mins2025-06-25 06:47:53.818Z344.351° N2025-06-25 06:49:53.818Z20.377° NNE18.702°2025-06-25 06:52:53.818Z68.085° E
7 mins2025-06-25 08:26:53.818Z313.082° NW2025-06-25 08:29:53.818Z28.865° NE44.456°2025-06-25 08:33:53.818Z126.332° SE
|